sat.trackr.live / text

‹ back to catalog

STARLINK-35215

NORAD 65813 · 2025-218Y

PAYLOAD ACTIVE UNKNOWN

§ Identity

Operator
Country
US
Launch date
2025-09-26
Launch site
AFWTR
Launch vehicle
Mass (kg)
RCS (m²)

Purposes: comms

External: N2YO · Heavens-Above · Gunter

§ Orbital elements

Epoch: 2026-09-20T13:41:59.319744Z

Period
93.91 min
Inclination
97.2847°
Eccentricity
0.0001608
Mean motion
15.33447129 rev/d
Perigee alt
464.4 km
Apogee alt
466.6 km
Semi-major
6,843.7 km
B*
3.0693e-4
RAAN
120.9376°
Arg perigee
81.3503°
Mean anomaly
278.7922°
Rev number
5,434

§ Raw data

STARLINK-352151 65813U 25218Y   26263.57082546  .00009847  00000+0  30693-3 0  99982 65813  97.2847 120.9376 0001608  81.3503 278.7922 15.33447129 54347

JSON: /api/v1/satellites/65813 · /tle

For live sub-satellite position, see the globe view (requires WebGL).

§ Visibility from observer

Set your observer location to see the next 7 days of passes ≥ 10°. The values pass through the URL so the page stays shareable.

No JS? Fill the form by hand. The geolocation button needs JavaScript.